Вернуться в каталог

CZ-6A DEB

АктивенPO
NORAD 61300·DEBRIS·🇨🇳 China

Запущен Aug 6, 2024 с Taiyuan Satellite Launch Center

Loading…

Ближайшие Пролёты (ближайшие 24 часа)

TLE

СвежийSource: Space-Track

Эпоха: Sep 14, 2026, 10:46 UTC

1 61300U 24140TM  26257.44879361  .00004952  00000-0  83396-3 0  9997
2 61300  89.0303 262.3028 0131653 315.9900  43.0890 14.63794632108990

Отслеживайте CZ-6A DEB в реальном времени с AllMySat

Download on the App Store